User: anonymous   Login
Location: Unspecified
(0.0000°N, 0.0000°E)
Time: 00:15:26
(UTC+00:00)
Language:

N. Korean satellite - Orbit

View from above orbital plane
View from above orbital plane
View from above satellite
View from above satellite

Ground track
Ground track

The orbit data is extracted from the following two-line orbital elements,

1 39026U 12072A   15116.14023561  .00009453  00000-0  43390-3 0  9991
2 39026 097.2884 149.4681 0048273 059.3840 301.2143 15.19558769130808
Epoch (UTC): 26 April 2015 03:21:56
Eccentricity: 0.0048273
inclination: 97.2884°
perigee height: 474 km
apogee height: 540 km
right ascension of ascending node: 149.4681°
argument of perigee: 59.3840°
revolutions per day: 15.19558769
mean anomaly at epoch: 301.2143°
orbit number at epoch: 13080

The dashed part of the orbit path shows where the satellite is in the earth's shadow,  

DLR